This is the latest recevied weather packets stored in our database for station/object DO7ZT-10. If no packets are shown the sender has not sent any weather packets the latest 10 day(s).
| Time | Temp. | Humidity | Pressure | Rain* | Wind** | Luminosity | Snow |
|---|---|---|---|---|---|---|---|
| 1777222126 | 13.33° C | 31% | 1023.3 hPa | - | - | - | - |
| 1777221226 | 13.33° C | 30% | 1023.4 hPa | - | - | - | - |
| 1777220325 | 13.89° C | 28% | 1023.4 hPa | - | - | - | - |
| 1777219425 | 13.89° C | 29% | 1023.5 hPa | - | - | - | - |
| 1777218525 | 15° C | 27% | 1023.6 hPa | - | - | - | - |
| 1777217625 | 15° C | 31% | 1023.6 hPa | - | - | - | - |
| 1777216725 | 14.44° C | 29% | 1023.6 hPa | - | - | - | - |
| 1777215824 | 14.44° C | 29% | 1023.7 hPa | - | - | - | - |
| 1777214924 | 14.44° C | 31% | 1023.7 hPa | - | - | - | - |
| 1777214024 | 15.56° C | 28% | 1023.7 hPa | - | - | - | - |
| 1777213124 | 15° C | 28% | 1023.7 hPa | - | - | - | - |
| 1777212224 | 15° C | 28% | 1023.6 hPa | - | - | - | - |
| 1777211324 | 15° C | 31% | 1023.7 hPa | - | - | - | - |
| 1777210424 | 15.56° C | 30% | 1023.8 hPa | - | - | - | - |
| 1777209524 | 15.56° C | 30% | 1023.8 hPa | - | - | - | - |
| 1777208624 | 15.56° C | 29% | 1023.9 hPa | - | - | - | - |
| 1777207724 | 15.56° C | 31% | 1023.9 hPa | - | - | - | - |
| 1777206824 | 15.56° C | 28% | 1023.9 hPa | - | - | - | - |
| 1777205924 | 15° C | 30% | 1024.1 hPa | - | - | - | - |
| 1777205024 | 15.56° C | 30% | 1024.1 hPa | - | - | - | - |
| 1777204124 | 15° C | 31% | 1024.1 hPa | - | - | - | - |
| 1777203223 | 15° C | 33% | 1024.1 hPa | - | - | - | - |
| 1777202323 | 13.89° C | 31% | 1024.1 hPa | - | - | - | - |
| 1777201423 | 13.33° C | 35% | 1024.1 hPa | - | - | - | - |
| 1777200523 | 13.89° C | 36% | 1024.1 hPa | - | - | - | - |
* Rain since midnight (hover to see other rain measurements)
** Current wind speed in m/s (hover to see current wind gust speed)